Location: Peebles
(55.6412°N, 3.1714°W)
Time: 01:06:52
(UTC+01:00)

deb r/b Ablestar - Pass Details

Date: 08 July 2022
Orbit: 859 x 1154 km, 67.2° (Epoch: 13 August)

Event Time Altitude Azimuth Distance (km) Brightness Sun altitude
Rises 23:20:10 0° 314° (NW) 4,002 ? -8.0°
Reaches altitude 10° 23:22:54 10° 317° (NW) 3,055 ? -8.2°
Maximum altitude 23:30:12 66° 39° (NE) 1,256 ? -8.7°
Drops below altitude 10° 23:37:25 10° 122° (ESE) 3,016 ? -9.1°
Enters shadow 23:38:46 - 124° (SE) 3,484 ? -9.2°
